Data supplied by UK-AIR on 5/4/2008
All Data GMT hour ending 
Status: R =Ratified P=Provisional,P*=As supplied
,,Bristol Centre,,,,,,,,,,,,,,,,,,,,,,,
Date,time,"Carbon monoxide",status,unit,"PM10 particulate matter (Hourly measured)",status,unit,"Nitric oxide",status,unit,"Nitrogen dioxide",status,unit,"Nitrogen oxides as nitrogen dioxide",status,unit,"Ozone",status,unit,"Sulphur dioxide",status,unit
 
01-01-1996,01:00,,,,29,R,ugm-3 (GRAV EQ),,,,,,,,,,,,,,,
01-01-1996,02:00,1.0,R,mgm-3,35,R,ugm-3 (GRAV EQ),60,R,ugm-3,55,R,ugm-3,147,R,ugm-3,6,R,ugm-3,5,R,ugm-3
01-01-1996,03:00,0.7,R,mgm-3,44,R,ugm-3 (GRAV EQ),69,R,ugm-3,63,R,ugm-3,168,R,ugm-3,4,R,ugm-3,5,R,ugm-3
01-01-1996,04:00,0.7,R,mgm-3,40,R,ugm-3 (GRAV EQ),66,R,ugm-3,63,R,ugm-3,164,R,ugm-3,4,R,ugm-3,8,R,ugm-3
01-01-1996,05:00,0.5,R,mgm-3,31,R,ugm-3 (GRAV EQ),58,R,ugm-3,55,R,ugm-3,143,R,ugm-3,4,R,ugm-3,8,R,ugm-3
01-01-1996,06:00,0.5,R,mgm-3,31,R,ugm-3 (GRAV EQ),61,R,ugm-3,53,R,ugm-3,147,R,ugm-3,4,R,ugm-3,13,R,ugm-3
01-01-1996,07:00,0.6,R,mgm-3,29,R,ugm-3 (GRAV EQ),61,R,ugm-3,55,R,ugm-3,149,R,ugm-3,4,R,ugm-3,13,R,ugm-3
01-01-1996,08:00,0.5,R,mgm-3,25,R,ugm-3 (GRAV EQ),48,R,ugm-3,55,R,ugm-3,128,R,ugm-3,4,R,ugm-3,16,R,ugm-3
01-01-1996,09:00,0.6,R,mgm-3,22,R,ugm-3 (GRAV EQ),50,R,ugm-3,55,R,ugm-3,132,R,ugm-3,4,R,ugm-3,19,R,ugm-3
01-01-1996,10:00,0.6,R,mgm-3,25,R,ugm-3 (GRAV EQ),46,R,ugm-3,48,R,ugm-3,118,R,ugm-3,4,R,ugm-3,11,R,ugm-3
01-01-1996,11:00,0.8,R,mgm-3,29,R,ugm-3 (GRAV EQ),74,R,ugm-3,57,R,ugm-3,170,R,ugm-3,4,R,ugm-3,11,R,ugm-3
01-01-1996,12:00,1.3,R,mgm-3,31,R,ugm-3 (GRAV EQ),118,R,ugm-3,63,R,ugm-3,243,R,ugm-3,4,R,ugm-3,11,R,ugm-3
01-01-1996,13:00,2.4,R,mgm-3,46,R,ugm-3 (GRAV EQ),206,R,ugm-3,71,R,ugm-3,386,R,ugm-3,6,R,ugm-3,16,R,ugm-3
01-01-1996,14:00,2.1,R,mgm-3,34,R,ugm-3 (GRAV EQ),164,R,ugm-3,71,R,ugm-3,321,R,ugm-3,6,R,ugm-3,13,R,ugm-3
01-01-1996,15:00,1.4,R,mgm-3,38,R,ugm-3 (GRAV EQ),138,R,ugm-3,63,R,ugm-3,273,R,ugm-3,4,R,ugm-3,8,R,ugm-3
01-01-1996,16:00,1.6,R,mgm-3,51,R,ugm-3 (GRAV EQ),168,R,ugm-3,57,R,ugm-3,313,R,ugm-3,4,R,ugm-3,8,R,ugm-3
01-01-1996,17:00,1.7,R,mgm-3,47,R,ugm-3 (GRAV EQ),174,R,ugm-3,74,R,ugm-3,340,R,ugm-3,4,R,ugm-3,11,R,ugm-3
01-01-1996,18:00,1.3,R,mgm-3,34,R,ugm-3 (GRAV EQ),135,R,ugm-3,63,R,ugm-3,269,R,ugm-3,4,R,ugm-3,11,R,ugm-3
01-01-1996,19:00,1.2,R,mgm-3,34,R,ugm-3 (GRAV EQ),121,R,ugm-3,67,R,ugm-3,252,R,ugm-3,4,R,ugm-3,13,R,ugm-3
01-01-1996,20:00,1.3,R,mgm-3,35,R,ugm-3 (GRAV EQ),148,R,ugm-3,71,R,ugm-3,296,R,ugm-3,4,R,ugm-3,11,R,ugm-3
01-01-1996,21:00,1.3,R,mgm-3,38,R,ugm-3 (GRAV EQ),148,R,ugm-3,65,R,ugm-3,290,R,ugm-3,4,R,ugm-3,16,R,ugm-3
01-01-1996,22:00,1.0,R,mgm-3,33,R,ugm-3 (GRAV EQ),124,R,ugm-3,76,R,ugm-3,265,R,ugm-3,4,R,ugm-3,13,R,ugm-3
01-01-1996,23:00,0.9,R,mgm-3,34,R,ugm-3 (GRAV EQ),103,R,ugm-3,67,R,ugm-3,223,R,ugm-3,4,R,ugm-3,13,R,ugm-3
01-01-1996,24:00,0.6,R,mgm-3,29,R,ugm-3 (GRAV EQ),59,R,ugm-3,63,R,ugm-3,153,R,ugm-3,4,R,ugm-3,13,R,ugm-3
02-01-1996,01:00,0.3,R,mgm-3,27,R,ugm-3 (GRAV EQ),46,R,ugm-3,57,R,ugm-3,128,R,ugm-3,4,R,ugm-3,11,R,ugm-3
02-01-1996,02:00,0.2,R,mgm-3,23,R,ugm-3 (GRAV EQ),11,R,ugm-3,61,R,ugm-3,78,R,ugm-3,4,R,ugm-3,8,R,ugm-3
02-01-1996,03:00,0.1,R,mgm-3,27,R,ugm-3 (GRAV EQ),10,R,ugm-3,48,R,ugm-3,63,R,ugm-3,6,R,ugm-3,8,R,ugm-3
02-01-1996,04:00,0.2,R,mgm-3,29,R,ugm-3 (GRAV EQ),18,R,ugm-3,50,R,ugm-3,76,R,ugm-3,4,R,ugm-3,5,R,ugm-3
02-01-1996,05:00,0.2,R,mgm-3,26,R,ugm-3 (GRAV EQ),26,R,ugm-3,46,R,ugm-3,86,R,ugm-3,4,R,ugm-3,5,R,ugm-3
02-01-1996,06:00,0.2,R,mgm-3,29,R,ugm-3 (GRAV EQ),31,R,ugm-3,50,R,ugm-3,97,R,ugm-3,4,R,ugm-3,5,R,ugm-3
02-01-1996,07:00,0.6,R,mgm-3,31,R,ugm-3 (GRAV EQ),75,R,ugm-3,52,R,ugm-3,166,R,ugm-3,4,R,ugm-3,5,R,ugm-3
02-01-1996,08:00,0.9,R,mgm-3,38,R,ugm-3 (GRAV EQ),131,R,ugm-3,59,R,ugm-3,260,R,ugm-3,4,R,ugm-3,8,R,ugm-3
02-01-1996,09:00,1.5,R,mgm-3,47,R,ugm-3 (GRAV EQ),215,R,ugm-3,71,R,ugm-3,399,R,ugm-3,6,R,ugm-3,13,R,ugm-3
02-01-1996,10:00,1.9,R,mgm-3,77,R,ugm-3 (GRAV EQ),306,R,ugm-3,61,R,ugm-3,529,R,ugm-3,6,R,ugm-3,19,R,ugm-3
02-01-1996,11:00,,,,79,R,ugm-3 (GRAV EQ),,,,,,,,,,,,,,,
02-01-1996,12:00,,,,86,R,ugm-3 (GRAV EQ),,,,,,,,,,,,,,,
02-01-1996,13:00,,,,75,R,ugm-3 (GRAV EQ),,,,,,,,,,,,,,,
02-01-1996,14:00,,,,,,,,,,,,,,,,,,,,,
02-01-1996,15:00,,,,,,,,,,,,,,,,,,,,,
02-01-1996,16:00,,,,,,,,,,,,,,,,,,,,,
02-01-1996,17:00,,,,,,,,,,,,,,,,,,,,,
02-01-1996,18:00,,,,,,,,,,,,,,,,,,,,,
02-01-1996,19:00,,,,,,,,,,,,,,,,,,,,,
02-01-1996,20:00,,,,,,,,,,,,,,,,,,,,,
02-01-1996,21:00,,,,,,,,,,,,,,,,,,,,,
02-01-1996,22:00,,,,,,,,,,,,,,,,,,,,,
02-01-1996,23:00,,,,,,,,,,,,,,,,,,,,,
02-01-1996,24:00,,,,,,,,,,,,,,,,,,,,,
03-01-1996,01:00,,,,,,,,,,,,,,,,,,,,,
03-01-1996,02:00,,,,,,,,,,,,,,,,,,,,,
03-01-1996,03:00,,,,,,,,,,,,,,,,,,,,,
03-01-1996,04:00,,,,,,,,,,,,,,,,,,,,,
03-01-1996,05:00,,,,,,,,,,,,,,,,,,,,,
03-01-1996,06:00,,,,,,,,,,,,,,,,,,,,,
03-01-1996,07:00,,,,,,,,,,,,,,,,,,,,,
03-01-1996,08:00,,,,,,,,,,,,,,,,,,,,,
03-01-1996,09:00,,,,,,,,,,,,,,,,,,,,,
03-01-1996,10:00,,,,,,,,,,,,,,,,,,,,,
03-01-1996,11:00,,,,,,,,,,,,,,,,,,,,,
03-01-1996,12:00,,,,,,,,,,,,,,,,,,,,,
03-01-1996,13:00,,,,,,,,,,,,,,,,,,,,,
03-01-1996,14:00,,,,,,,,,,,,,,,,,,,,,
03-01-1996,15:00,,,,,,,,,,,,,,,,,,,,,
03-01-1996,16:00,,,,,,,,,,,,,,,,,,,,,
03-01-1996,17:00,,,,,,,,,,,,,,,,,,,,,
03-01-1996,18:00,,,,,,,,,,,,,,,,,,,,,
03-01-1996,19:00,,,,,,,,,,,,,,,,,,,,,
03-01-1996,20:00,,,,,,,,,,,,,,,,,,,,,
03-01-1996,21:00,,,,,,,,,,,,,,,,,,,,,
03-01-1996,22:00,,,,,,,,,,,,,,,,,,,,,
03-01-1996,23:00,,,,,,,,,,,,,,,,,,,,,
03-01-1996,24:00,,,,,,,,,,,,,,,,,,,,,
04-01-1996,01:00,,,,,,,,,,,,,,,,,,,,,
04-01-1996,02:00,,,,,,,,,,,,,,,,,,,,,
04-01-1996,03:00,,,,,,,,,,,,,,,,,,,,,
04-01-1996,04:00,,,,,,,,,,,,,,,,,,,,,
04-01-1996,05:00,,,,,,,,,,,,,,,,,,,,,
04-01-1996,06:00,,,,,,,,,,,,,,,,,,,,,
04-01-1996,07:00,,,,,,,,,,,,,,,,,,,,,
04-01-1996,08:00,,,,,,,,,,,,,,,,,,,,,
04-01-1996,09:00,,,,,,,,,,,,,,,,,,,,,
04-01-1996,10:00,,,,,,,,,,,,,,,,,,,,,
04-01-1996,11:00,,,,,,,,,,,,,,,,,,,,,
04-01-1996,12:00,,,,,,,,,,,,,,,,,,,,,
04-01-1996,13:00,,,,,,,,,,,,,,,,,,,,,
04-01-1996,14:00,,,,,,,,,,,,,,,,,,,,,
04-01-1996,15:00,,,,,,,,,,,,,,,,,,,,,
04-01-1996,16:00,,,,,,,,,,,,,,,,,,,,,
04-01-1996,17:00,,,,,,,,,,,,,,,,,,,,,
04-01-1996,18:00,,,,,,,,,,,,,,,,,,,,,
04-01-1996,19:00,,,,,,,,,,,,,,,,,,,,,
04-01-1996,20:00,,,,,,,,,,,,,,,,,,,,,
04-01-1996,21:00,,,,,,,,,,,,,,,,,,,,,
04-01-1996,22:00,,,,,,,,,,,,,,,,,,,,,
04-01-1996,23:00,,,,,,,,,,,,,,,,,,,,,
04-01-1996,24:00,,,,,,,,,,,,,,,,,,,,,
05-01-1996,01:00,,,,,,,,,,,,,,,,,,,,,
05-01-1996,02:00,,,,,,,,,,,,,,,,,,,,,
05-01-1996,03:00,,,,,,,,,,,,,,,,,,,,,
05-01-1996,04:00,,,,,,,,,,,,,,,,,,,,,
05-01-1996,05:00,,,,,,,,,,,,,,,,,,,,,
05-01-1996,06:00,,,,,,,,,,,,,,,,,,,,,
05-01-1996,07:00,,,,,,,,,,,,,,,,,,,,,
05-01-1996,08:00,,,,,,,,,,,,,,,,,,,,,
05-01-1996,09:00,,,,,,,,,,,,,,,,,,,,,
05-01-1996,10:00,,,,,,,,,,,,,,,,,,,,,
05-01-1996,11:00,,,,,,,,,,,,,,,,,,,,,
05-01-1996,12:00,,,,,,,,,,,,,,,,,,,,,
05-01-1996,13:00,,,,47,R,ugm-3 (GRAV EQ),241,R,ugm-3,76,R,ugm-3,445,R,ugm-3,,,,,,
05-01-1996,14:00,,,,57,R,ugm-3 (GRAV EQ),288,R,ugm-3,113,R,ugm-3,552,R,ugm-3,10,R,ugm-3,29,R,ugm-3
05-01-1996,15:00,,,,56,R,ugm-3 (GRAV EQ),328,R,ugm-3,84,R,ugm-3,584,R,ugm-3,10,R,ugm-3,32,R,ugm-3
05-01-1996,16:00,3.1,R,mgm-3,52,R,ugm-3 (GRAV EQ),300,R,ugm-3,122,R,ugm-3,581,R,ugm-3,10,R,ugm-3,32,R,ugm-3
05-01-1996,17:00,3.5,R,mgm-3,57,R,ugm-3 (GRAV EQ),349,R,ugm-3,78,R,ugm-3,611,R,ugm-3,8,R,ugm-3,35,R,ugm-3
05-01-1996,18:00,4.6,R,mgm-3,55,R,ugm-3 (GRAV EQ),343,R,ugm-3,107,R,ugm-3,630,R,ugm-3,12,R,ugm-3,35,R,ugm-3
05-01-1996,19:00,3.1,R,mgm-3,52,R,ugm-3 (GRAV EQ),306,R,ugm-3,101,R,ugm-3,569,R,ugm-3,6,R,ugm-3,27,R,ugm-3
05-01-1996,20:00,2.0,R,mgm-3,44,R,ugm-3 (GRAV EQ),244,R,ugm-3,57,R,ugm-3,430,R,ugm-3,6,R,ugm-3,19,R,ugm-3
05-01-1996,21:00,1.4,R,mgm-3,39,R,ugm-3 (GRAV EQ),175,R,ugm-3,84,R,ugm-3,351,R,ugm-3,6,R,ugm-3,16,R,ugm-3
05-01-1996,22:00,1.2,R,mgm-3,40,R,ugm-3 (GRAV EQ),161,R,ugm-3,82,R,ugm-3,329,R,ugm-3,8,R,ugm-3,16,R,ugm-3
05-01-1996,23:00,1.2,R,mgm-3,38,R,ugm-3 (GRAV EQ),140,R,ugm-3,86,R,ugm-3,300,R,ugm-3,8,R,ugm-3,13,R,ugm-3
05-01-1996,24:00,0.7,R,mgm-3,29,R,ugm-3 (GRAV EQ),84,R,ugm-3,61,R,ugm-3,189,R,ugm-3,8,R,ugm-3,11,R,ugm-3
06-01-1996,01:00,0.5,R,mgm-3,17,R,ugm-3 (GRAV EQ),26,R,ugm-3,48,R,ugm-3,88,R,ugm-3,12,R,ugm-3,5,R,ugm-3
06-01-1996,02:00,0.3,R,mgm-3,16,R,ugm-3 (GRAV EQ),33,R,ugm-3,55,R,ugm-3,105,R,ugm-3,14,R,ugm-3,5,R,ugm-3
06-01-1996,03:00,0.3,R,mgm-3,14,R,ugm-3 (GRAV EQ),18,R,ugm-3,48,R,ugm-3,74,R,ugm-3,20,R,ugm-3,3,R,ugm-3
06-01-1996,04:00,0.1,R,mgm-3,9,R,ugm-3 (GRAV EQ),6,R,ugm-3,46,R,ugm-3,55,R,ugm-3,20,R,ugm-3,3,R,ugm-3
06-01-1996,05:00,0.0,R,mgm-3,10,R,ugm-3 (GRAV EQ),5,R,ugm-3,42,R,ugm-3,50,R,ugm-3,28,R,ugm-3,5,R,ugm-3
06-01-1996,06:00,0.0,R,mgm-3,13,R,ugm-3 (GRAV EQ),4,R,ugm-3,27,R,ugm-3,32,R,ugm-3,34,R,ugm-3,5,R,ugm-3
06-01-1996,07:00,0.1,R,mgm-3,21,R,ugm-3 (GRAV EQ),13,R,ugm-3,46,R,ugm-3,65,R,ugm-3,24,R,ugm-3,8,R,ugm-3
06-01-1996,08:00,0.1,R,mgm-3,16,R,ugm-3 (GRAV EQ),26,R,ugm-3,38,R,ugm-3,78,R,ugm-3,24,R,ugm-3,5,R,ugm-3
06-01-1996,09:00,0.6,R,mgm-3,25,R,ugm-3 (GRAV EQ),71,R,ugm-3,32,R,ugm-3,141,R,ugm-3,22,R,ugm-3,8,R,ugm-3
06-01-1996,10:00,0.7,R,mgm-3,29,R,ugm-3 (GRAV EQ),84,R,ugm-3,73,R,ugm-3,201,R,ugm-3,20,R,ugm-3,11,R,ugm-3
06-01-1996,11:00,1.0,R,mgm-3,33,R,ugm-3 (GRAV EQ),100,R,ugm-3,78,R,ugm-3,231,R,ugm-3,22,R,ugm-3,13,R,ugm-3
06-01-1996,12:00,1.5,R,mgm-3,30,R,ugm-3 (GRAV EQ),120,R,ugm-3,71,R,ugm-3,254,R,ugm-3,24,R,ugm-3,13,R,ugm-3
06-01-1996,13:00,1.3,R,mgm-3,35,R,ugm-3 (GRAV EQ),104,R,ugm-3,71,R,ugm-3,229,R,ugm-3,32,R,ugm-3,13,R,ugm-3
06-01-1996,14:00,1.5,R,mgm-3,30,R,ugm-3 (GRAV EQ),91,R,ugm-3,74,R,ugm-3,214,R,ugm-3,32,R,ugm-3,13,R,ugm-3
06-01-1996,15:00,1.4,R,mgm-3,27,R,ugm-3 (GRAV EQ),79,R,ugm-3,63,R,ugm-3,183,R,ugm-3,34,R,ugm-3,11,R,ugm-3
06-01-1996,16:00,1.7,R,mgm-3,31,R,ugm-3 (GRAV EQ),108,R,ugm-3,78,R,ugm-3,243,R,ugm-3,28,R,ugm-3,13,R,ugm-3
06-01-1996,17:00,1.4,R,mgm-3,21,R,ugm-3 (GRAV EQ),106,R,ugm-3,57,R,ugm-3,220,R,ugm-3,28,R,ugm-3,13,R,ugm-3
06-01-1996,18:00,1.4,R,mgm-3,18,R,ugm-3 (GRAV EQ),111,R,ugm-3,48,R,ugm-3,218,R,ugm-3,30,R,ugm-3,13,R,ugm-3
06-01-1996,19:00,0.8,R,mgm-3,13,R,ugm-3 (GRAV EQ),56,R,ugm-3,44,R,ugm-3,130,R,ugm-3,38,R,ugm-3,13,R,ugm-3
06-01-1996,20:00,0.3,R,mgm-3,8,R,ugm-3 (GRAV EQ),23,R,ugm-3,29,R,ugm-3,63,R,ugm-3,38,R,ugm-3,11,R,ugm-3
06-01-1996,21:00,0.1,R,mgm-3,8,R,ugm-3 (GRAV EQ),25,R,ugm-3,17,R,ugm-3,55,R,ugm-3,40,R,ugm-3,11,R,ugm-3
06-01-1996,22:00,0.2,R,mgm-3,8,R,ugm-3 (GRAV EQ),16,R,ugm-3,32,R,ugm-3,57,R,ugm-3,38,R,ugm-3,8,R,ugm-3
06-01-1996,23:00,0.3,R,mgm-3,17,R,ugm-3 (GRAV EQ),18,R,ugm-3,31,R,ugm-3,57,R,ugm-3,40,R,ugm-3,8,R,ugm-3
06-01-1996,24:00,0.2,R,mgm-3,21,R,ugm-3 (GRAV EQ),13,R,ugm-3,23,R,ugm-3,42,R,ugm-3,40,R,ugm-3,5,R,ugm-3
07-01-1996,01:00,0.8,R,mgm-3,26,R,ugm-3 (GRAV EQ),8,R,ugm-3,29,R,ugm-3,40,R,ugm-3,36,R,ugm-3,5,R,ugm-3
07-01-1996,02:00,0.7,R,mgm-3,22,R,ugm-3 (GRAV EQ),4,R,ugm-3,29,R,ugm-3,34,R,ugm-3,46,R,ugm-3,3,R,ugm-3
07-01-1996,03:00,0.6,R,mgm-3,23,R,ugm-3 (GRAV EQ),4,R,ugm-3,21,R,ugm-3,27,R,ugm-3,54,R,ugm-3,5,R,ugm-3
07-01-1996,04:00,0.6,R,mgm-3,38,R,ugm-3 (GRAV EQ),1,R,ugm-3,4,R,ugm-3,6,R,ugm-3,70,R,ugm-3,3,R,ugm-3
07-01-1996,05:00,0.6,R,mgm-3,35,R,ugm-3 (GRAV EQ),1,R,ugm-3,4,R,ugm-3,6,R,ugm-3,72,R,ugm-3,3,R,ugm-3
07-01-1996,06:00,0.5,R,mgm-3,35,R,ugm-3 (GRAV EQ),1,R,ugm-3,6,R,ugm-3,8,R,ugm-3,72,R,ugm-3,3,R,ugm-3
07-01-1996,07:00,0.5,R,mgm-3,39,R,ugm-3 (GRAV EQ),1,R,ugm-3,6,R,ugm-3,8,R,ugm-3,70,R,ugm-3,5,R,ugm-3
07-01-1996,08:00,0.6,R,mgm-3,25,R,ugm-3 (GRAV EQ),1,R,ugm-3,10,R,ugm-3,11,R,ugm-3,70,R,ugm-3,5,R,ugm-3
07-01-1996,09:00,0.5,R,mgm-3,13,R,ugm-3 (GRAV EQ),1,R,ugm-3,10,R,ugm-3,11,R,ugm-3,72,R,ugm-3,5,R,ugm-3
07-01-1996,10:00,0.5,R,mgm-3,13,R,ugm-3 (GRAV EQ),1,R,ugm-3,11,R,ugm-3,13,R,ugm-3,66,R,ugm-3,3,R,ugm-3
07-01-1996,11:00,0.6,R,mgm-3,18,R,ugm-3 (GRAV EQ),4,R,ugm-3,19,R,ugm-3,25,R,ugm-3,60,R,ugm-3,3,R,ugm-3
07-01-1996,12:00,0.6,R,mgm-3,23,R,ugm-3 (GRAV EQ),3,R,ugm-3,21,R,ugm-3,25,R,ugm-3,60,R,ugm-3,5,R,ugm-3
07-01-1996,13:00,0.6,R,mgm-3,35,R,ugm-3 (GRAV EQ),5,R,ugm-3,23,R,ugm-3,31,R,ugm-3,52,R,ugm-3,5,R,ugm-3
07-01-1996,14:00,0.6,R,mgm-3,40,R,ugm-3 (GRAV EQ),4,R,ugm-3,19,R,ugm-3,25,R,ugm-3,54,R,ugm-3,5,R,ugm-3
07-01-1996,15:00,0.6,R,mgm-3,39,R,ugm-3 (GRAV EQ),5,R,ugm-3,21,R,ugm-3,29,R,ugm-3,54,R,ugm-3,8,R,ugm-3
07-01-1996,16:00,0.6,R,mgm-3,34,R,ugm-3 (GRAV EQ),3,R,ugm-3,25,R,ugm-3,29,R,ugm-3,50,R,ugm-3,3,R,ugm-3
07-01-1996,17:00,0.7,R,mgm-3,38,R,ugm-3 (GRAV EQ),8,R,ugm-3,38,R,ugm-3,50,R,ugm-3,32,R,ugm-3,8,R,ugm-3
07-01-1996,18:00,0.6,R,mgm-3,39,R,ugm-3 (GRAV EQ),6,R,ugm-3,52,R,ugm-3,61,R,ugm-3,22,R,ugm-3,8,R,ugm-3
07-01-1996,19:00,1.4,R,mgm-3,53,R,ugm-3 (GRAV EQ),104,R,ugm-3,71,R,ugm-3,229,R,ugm-3,14,R,ugm-3,11,R,ugm-3
07-01-1996,20:00,0.7,R,mgm-3,44,R,ugm-3 (GRAV EQ),20,R,ugm-3,57,R,ugm-3,88,R,ugm-3,14,R,ugm-3,8,R,ugm-3
07-01-1996,21:00,0.8,R,mgm-3,49,R,ugm-3 (GRAV EQ),53,R,ugm-3,57,R,ugm-3,138,R,ugm-3,14,R,ugm-3,11,R,ugm-3
07-01-1996,22:00,0.8,R,mgm-3,42,R,ugm-3 (GRAV EQ),38,R,ugm-3,65,R,ugm-3,122,R,ugm-3,14,R,ugm-3,8,R,ugm-3
07-01-1996,23:00,0.5,R,mgm-3,23,R,ugm-3 (GRAV EQ),10,R,ugm-3,34,R,ugm-3,50,R,ugm-3,42,R,ugm-3,5,R,ugm-3
07-01-1996,24:00,0.3,R,mgm-3,14,R,ugm-3 (GRAV EQ),3,R,ugm-3,13,R,ugm-3,17,R,ugm-3,58,R,ugm-3,5,R,ugm-3
08-01-1996,01:00,0.3,R,mgm-3,9,R,ugm-3 (GRAV EQ),0,R,ugm-3,15,R,ugm-3,15,R,ugm-3,58,R,ugm-3,5,R,ugm-3
08-01-1996,02:00,0.2,R,mgm-3,13,R,ugm-3 (GRAV EQ),1,R,ugm-3,11,R,ugm-3,13,R,ugm-3,62,R,ugm-3,3,R,ugm-3
08-01-1996,03:00,0.3,R,mgm-3,16,R,ugm-3 (GRAV EQ),3,R,ugm-3,31,R,ugm-3,34,R,ugm-3,42,R,ugm-3,5,R,ugm-3
08-01-1996,04:00,0.3,R,mgm-3,20,R,ugm-3 (GRAV EQ),5,R,ugm-3,42,R,ugm-3,50,R,ugm-3,30,R,ugm-3,3,R,ugm-3
08-01-1996,05:00,0.3,R,mgm-3,23,R,ugm-3 (GRAV EQ),3,R,ugm-3,32,R,ugm-3,36,R,ugm-3,44,R,ugm-3,3,R,ugm-3
08-01-1996,06:00,0.3,R,mgm-3,30,R,ugm-3 (GRAV EQ),8,R,ugm-3,31,R,ugm-3,42,R,ugm-3,44,R,ugm-3,5,R,ugm-3
08-01-1996,07:00,0.5,R,mgm-3,33,R,ugm-3 (GRAV EQ),10,R,ugm-3,44,R,ugm-3,59,R,ugm-3,42,R,ugm-3,3,R,ugm-3
08-01-1996,08:00,0.6,R,mgm-3,20,R,ugm-3 (GRAV EQ),35,R,ugm-3,31,R,ugm-3,84,R,ugm-3,40,R,ugm-3,5,R,ugm-3
08-01-1996,09:00,0.6,R,mgm-3,21,R,ugm-3 (GRAV EQ),19,R,ugm-3,44,R,ugm-3,73,R,ugm-3,44,R,ugm-3,8,R,ugm-3
08-01-1996,10:00,0.3,R,mgm-3,35,R,ugm-3 (GRAV EQ),8,R,ugm-3,29,R,ugm-3,40,R,ugm-3,52,R,ugm-3,5,R,ugm-3
08-01-1996,11:00,0.5,R,mgm-3,27,R,ugm-3 (GRAV EQ),13,R,ugm-3,25,R,ugm-3,44,R,ugm-3,50,R,ugm-3,5,R,ugm-3
08-01-1996,12:00,0.5,R,mgm-3,31,R,ugm-3 (GRAV EQ),25,R,ugm-3,25,R,ugm-3,63,R,ugm-3,46,R,ugm-3,8,R,ugm-3
08-01-1996,13:00,0.5,R,mgm-3,36,R,ugm-3 (GRAV EQ),26,R,ugm-3,32,R,ugm-3,73,R,ugm-3,40,R,ugm-3,11,R,ugm-3
08-01-1996,14:00,0.6,R,mgm-3,30,R,ugm-3 (GRAV EQ),29,R,ugm-3,42,R,ugm-3,86,R,ugm-3,38,R,ugm-3,5,R,ugm-3
08-01-1996,15:00,0.9,R,mgm-3,30,R,ugm-3 (GRAV EQ),70,R,ugm-3,53,R,ugm-3,160,R,ugm-3,30,R,ugm-3,8,R,ugm-3
08-01-1996,16:00,0.9,R,mgm-3,38,R,ugm-3 (GRAV EQ),71,R,ugm-3,23,R,ugm-3,132,R,ugm-3,28,R,ugm-3,8,R,ugm-3
08-01-1996,17:00,1.0,R,mgm-3,31,R,ugm-3 (GRAV EQ),76,R,ugm-3,46,R,ugm-3,162,R,ugm-3,30,R,ugm-3,11,R,ugm-3
08-01-1996,18:00,1.0,R,mgm-3,23,R,ugm-3 (GRAV EQ),73,R,ugm-3,31,R,ugm-3,141,R,ugm-3,34,R,ugm-3,11,R,ugm-3
08-01-1996,19:00,0.8,R,mgm-3,23,R,ugm-3 (GRAV EQ),49,R,ugm-3,40,R,ugm-3,115,R,ugm-3,36,R,ugm-3,11,R,ugm-3
08-01-1996,20:00,0.5,R,mgm-3,35,R,ugm-3 (GRAV EQ),14,R,ugm-3,27,R,ugm-3,48,R,ugm-3,44,R,ugm-3,5,R,ugm-3
08-01-1996,21:00,0.3,R,mgm-3,17,R,ugm-3 (GRAV EQ),4,R,ugm-3,23,R,ugm-3,29,R,ugm-3,50,R,ugm-3,5,R,ugm-3
08-01-1996,22:00,0.3,R,mgm-3,26,R,ugm-3 (GRAV EQ),1,R,ugm-3,13,R,ugm-3,15,R,ugm-3,50,R,ugm-3,5,R,ugm-3
08-01-1996,23:00,0.3,R,mgm-3,21,R,ugm-3 (GRAV EQ),8,R,ugm-3,27,R,ugm-3,38,R,ugm-3,42,R,ugm-3,8,R,ugm-3
08-01-1996,24:00,0.3,R,mgm-3,27,R,ugm-3 (GRAV EQ),14,R,ugm-3,29,R,ugm-3,50,R,ugm-3,36,R,ugm-3,8,R,ugm-3
09-01-1996,01:00,0.3,R,mgm-3,31,R,ugm-3 (GRAV EQ),3,R,ugm-3,21,R,ugm-3,25,R,ugm-3,44,R,ugm-3,,,
09-01-1996,02:00,0.2,R,mgm-3,27,R,ugm-3 (GRAV EQ),1,R,ugm-3,29,R,ugm-3,31,R,ugm-3,44,R,ugm-3,3,R,ugm-3
09-01-1996,03:00,0.2,R,mgm-3,17,R,ugm-3 (GRAV EQ),3,R,ugm-3,21,R,ugm-3,25,R,ugm-3,44,R,ugm-3,5,R,ugm-3
09-01-1996,04:00,0.2,R,mgm-3,18,R,ugm-3 (GRAV EQ),1,R,ugm-3,21,R,ugm-3,23,R,ugm-3,42,R,ugm-3,3,R,ugm-3
09-01-1996,05:00,0.2,R,mgm-3,29,R,ugm-3 (GRAV EQ),1,R,ugm-3,13,R,ugm-3,15,R,ugm-3,52,R,ugm-3,3,R,ugm-3
09-01-1996,06:00,0.2,R,mgm-3,21,R,ugm-3 (GRAV EQ),3,R,ugm-3,17,R,ugm-3,21,R,ugm-3,50,R,ugm-3,3,R,ugm-3
09-01-1996,07:00,0.6,R,mgm-3,27,R,ugm-3 (GRAV EQ),50,R,ugm-3,76,R,ugm-3,153,R,ugm-3,16,R,ugm-3,5,R,ugm-3
09-01-1996,08:00,1.0,R,mgm-3,38,R,ugm-3 (GRAV EQ),128,R,ugm-3,94,R,ugm-3,288,R,ugm-3,8,R,ugm-3,13,R,ugm-3
09-01-1996,09:00,0.7,R,mgm-3,40,R,ugm-3 (GRAV EQ),34,R,ugm-3,55,R,ugm-3,107,R,ugm-3,28,R,ugm-3,8,R,ugm-3
09-01-1996,10:00,0.5,R,mgm-3,33,R,ugm-3 (GRAV EQ),14,R,ugm-3,44,R,ugm-3,65,R,ugm-3,42,R,ugm-3,5,R,ugm-3
09-01-1996,11:00,0.5,R,mgm-3,35,R,ugm-3 (GRAV EQ),14,R,ugm-3,44,R,ugm-3,65,R,ugm-3,48,R,ugm-3,5,R,ugm-3
09-01-1996,12:00,0.5,R,mgm-3,38,R,ugm-3 (GRAV EQ),11,R,ugm-3,31,R,ugm-3,48,R,ugm-3,60,R,ugm-3,8,R,ugm-3
09-01-1996,13:00,0.3,R,mgm-3,33,R,ugm-3 (GRAV EQ),6,R,ugm-3,31,R,ugm-3,40,R,ugm-3,66,R,ugm-3,3,R,ugm-3
09-01-1996,14:00,0.3,R,mgm-3,26,R,ugm-3 (GRAV EQ),6,R,ugm-3,34,R,ugm-3,44,R,ugm-3,62,R,ugm-3,3,R,ugm-3
09-01-1996,15:00,0.3,R,mgm-3,36,R,ugm-3 (GRAV EQ),10,R,ugm-3,32,R,ugm-3,48,R,ugm-3,60,R,ugm-3,5,R,ugm-3
09-01-1996,16:00,0.5,R,mgm-3,16,R,ugm-3 (GRAV EQ),11,R,ugm-3,46,R,ugm-3,63,R,ugm-3,52,R,ugm-3,8,R,ugm-3
09-01-1996,17:00,1.0,R,mgm-3,17,R,ugm-3 (GRAV EQ),24,R,ugm-3,67,R,ugm-3,103,R,ugm-3,38,R,ugm-3,8,R,ugm-3
09-01-1996,18:00,0.8,R,mgm-3,29,R,ugm-3 (GRAV EQ),18,R,ugm-3,42,R,ugm-3,69,R,ugm-3,44,R,ugm-3,5,R,ugm-3
09-01-1996,19:00,0.6,R,mgm-3,23,R,ugm-3 (GRAV EQ),5,R,ugm-3,40,R,ugm-3,48,R,ugm-3,56,R,ugm-3,5,R,ugm-3
09-01-1996,20:00,0.3,R,mgm-3,25,R,ugm-3 (GRAV EQ),4,R,ugm-3,31,R,ugm-3,36,R,ugm-3,58,R,ugm-3,5,R,ugm-3
09-01-1996,21:00,0.3,R,mgm-3,26,R,ugm-3 (GRAV EQ),1,R,ugm-3,21,R,ugm-3,23,R,ugm-3,66,R,ugm-3,3,R,ugm-3
09-01-1996,22:00,0.3,R,mgm-3,27,R,ugm-3 (GRAV EQ),3,R,ugm-3,27,R,ugm-3,31,R,ugm-3,58,R,ugm-3,3,R,ugm-3
09-01-1996,23:00,0.3,R,mgm-3,29,R,ugm-3 (GRAV EQ),4,R,ugm-3,31,R,ugm-3,36,R,ugm-3,56,R,ugm-3,3,R,ugm-3
09-01-1996,24:00,0.2,R,mgm-3,25,R,ugm-3 (GRAV EQ),1,R,ugm-3,13,R,ugm-3,15,R,ugm-3,68,R,ugm-3,3,R,ugm-3
10-01-1996,01:00,0.2,R,mgm-3,20,R,ugm-3 (GRAV EQ),1,R,ugm-3,10,R,ugm-3,11,R,ugm-3,68,R,ugm-3,5,R,ugm-3
10-01-1996,02:00,0.2,R,mgm-3,13,R,ugm-3 (GRAV EQ),0,R,ugm-3,11,R,ugm-3,11,R,ugm-3,74,R,ugm-3,3,R,ugm-3
10-01-1996,03:00,0.2,R,mgm-3,20,R,ugm-3 (GRAV EQ),3,R,ugm-3,10,R,ugm-3,13,R,ugm-3,68,R,ugm-3,3,R,ugm-3
10-01-1996,04:00,0.1,R,mgm-3,26,R,ugm-3 (GRAV EQ),1,R,ugm-3,8,R,ugm-3,10,R,ugm-3,70,R,ugm-3,3,R,ugm-3
10-01-1996,05:00,0.2,R,mgm-3,25,R,ugm-3 (GRAV EQ),1,R,ugm-3,10,R,ugm-3,11,R,ugm-3,66,R,ugm-3,5,R,ugm-3
10-01-1996,06:00,0.2,R,mgm-3,18,R,ugm-3 (GRAV EQ),18,R,ugm-3,34,R,ugm-3,61,R,ugm-3,44,R,ugm-3,5,R,ugm-3
10-01-1996,07:00,0.8,R,mgm-3,40,R,ugm-3 (GRAV EQ),115,R,ugm-3,109,R,ugm-3,285,R,ugm-3,10,R,ugm-3,11,R,ugm-3
10-01-1996,08:00,1.6,R,mgm-3,56,R,ugm-3 (GRAV EQ),228,R,ugm-3,111,R,ugm-3,458,R,ugm-3,8,R,ugm-3,21,R,ugm-3
10-01-1996,09:00,1.9,R,mgm-3,52,R,ugm-3 (GRAV EQ),219,R,ugm-3,115,R,ugm-3,449,R,ugm-3,12,R,ugm-3,24,R,ugm-3
10-01-1996,10:00,1.7,R,mgm-3,57,R,ugm-3 (GRAV EQ),225,R,ugm-3,113,R,ugm-3,456,R,ugm-3,14,R,ugm-3,24,R,ugm-3
10-01-1996,11:00,1.0,R,mgm-3,34,R,ugm-3 (GRAV EQ),73,R,ugm-3,82,R,ugm-3,193,R,ugm-3,16,R,ugm-3,11,R,ugm-3
10-01-1996,12:00,1.2,R,mgm-3,31,R,ugm-3 (GRAV EQ),78,R,ugm-3,73,R,ugm-3,191,R,ugm-3,24,R,ugm-3,11,R,ugm-3
10-01-1996,13:00,1.0,R,mgm-3,34,R,ugm-3 (GRAV EQ),103,R,ugm-3,55,R,ugm-3,212,R,ugm-3,28,R,ugm-3,13,R,ugm-3
10-01-1996,14:00,0.8,R,mgm-3,25,R,ugm-3 (GRAV EQ),41,R,ugm-3,46,R,ugm-3,109,R,ugm-3,44,R,ugm-3,8,R,ugm-3
10-01-1996,15:00,1.5,R,mgm-3,40,R,ugm-3 (GRAV EQ),145,R,ugm-3,78,R,ugm-3,300,R,ugm-3,26,R,ugm-3,16,R,ugm-3
10-01-1996,16:00,2.1,R,mgm-3,53,R,ugm-3 (GRAV EQ),245,R,ugm-3,101,R,ugm-3,476,R,ugm-3,12,R,ugm-3,27,R,ugm-3
10-01-1996,17:00,2.9,R,mgm-3,66,R,ugm-3 (GRAV EQ),279,R,ugm-3,107,R,ugm-3,533,R,ugm-3,10,R,ugm-3,27,R,ugm-3
10-01-1996,18:00,3.2,R,mgm-3,66,R,ugm-3 (GRAV EQ),241,R,ugm-3,118,R,ugm-3,487,R,ugm-3,8,R,ugm-3,24,R,ugm-3
10-01-1996,19:00,2.9,R,mgm-3,62,R,ugm-3 (GRAV EQ),289,R,ugm-3,111,R,ugm-3,552,R,ugm-3,8,R,ugm-3,29,R,ugm-3
10-01-1996,20:00,2.0,R,mgm-3,53,R,ugm-3 (GRAV EQ),176,R,ugm-3,84,R,ugm-3,353,R,ugm-3,6,R,ugm-3,19,R,ugm-3
10-01-1996,21:00,0.7,R,mgm-3,31,R,ugm-3 (GRAV EQ),49,R,ugm-3,52,R,ugm-3,126,R,ugm-3,16,R,ugm-3,8,R,ugm-3
10-01-1996,22:00,0.7,R,mgm-3,21,R,ugm-3 (GRAV EQ),46,R,ugm-3,55,R,ugm-3,126,R,ugm-3,16,R,ugm-3,11,R,ugm-3
10-01-1996,23:00,0.7,R,mgm-3,21,R,ugm-3 (GRAV EQ),50,R,ugm-3,59,R,ugm-3,136,R,ugm-3,16,R,ugm-3,8,R,ugm-3
10-01-1996,24:00,0.5,R,mgm-3,22,R,ugm-3 (GRAV EQ),24,R,ugm-3,53,R,ugm-3,90,R,ugm-3,22,R,ugm-3,8,R,ugm-3
11-01-1996,01:00,0.2,R,mgm-3,10,R,ugm-3 (GRAV EQ),6,R,ugm-3,36,R,ugm-3,46,R,ugm-3,30,R,ugm-3,5,R,ugm-3
11-01-1996,02:00,0.2,R,mgm-3,10,R,ugm-3 (GRAV EQ),6,R,ugm-3,38,R,ugm-3,48,R,ugm-3,36,R,ugm-3,5,R,ugm-3
11-01-1996,03:00,0.2,R,mgm-3,8,R,ugm-3 (GRAV EQ),4,R,ugm-3,27,R,ugm-3,32,R,ugm-3,44,R,ugm-3,3,R,ugm-3
11-01-1996,04:00,0.1,R,mgm-3,9,R,ugm-3 (GRAV EQ),3,R,ugm-3,17,R,ugm-3,21,R,ugm-3,58,R,ugm-3,5,R,ugm-3
11-01-1996,05:00,0.1,R,mgm-3,9,R,ugm-3 (GRAV EQ),3,R,ugm-3,13,R,ugm-3,17,R,ugm-3,56,R,ugm-3,8,R,ugm-3
11-01-1996,06:00,0.2,R,mgm-3,10,R,ugm-3 (GRAV EQ),6,R,ugm-3,21,R,ugm-3,31,R,ugm-3,50,R,ugm-3,5,R,ugm-3
11-01-1996,07:00,0.3,R,mgm-3,17,R,ugm-3 (GRAV EQ),18,R,ugm-3,34,R,ugm-3,61,R,ugm-3,42,R,ugm-3,5,R,ugm-3
11-01-1996,08:00,0.6,R,mgm-3,22,R,ugm-3 (GRAV EQ),44,R,ugm-3,44,R,ugm-3,111,R,ugm-3,34,R,ugm-3,11,R,ugm-3
11-01-1996,09:00,,,,21,R,ugm-3 (GRAV EQ),,,,,,,,,,,,,8,R,ugm-3
11-01-1996,10:00,,,,14,R,ugm-3 (GRAV EQ),,,,,,,,,,,,,,,
11-01-1996,11:00,0.6,R,mgm-3,8,R,ugm-3 (GRAV EQ),50,R,ugm-3,40,R,ugm-3,117,R,ugm-3,50,R,ugm-3,8,R,ugm-3
11-01-1996,12:00,0.9,R,mgm-3,10,R,ugm-3 (GRAV EQ),73,R,ugm-3,55,R,ugm-3,166,R,ugm-3,38,R,ugm-3,11,R,ugm-3
11-01-1996,13:00,0.9,R,mgm-3,16,R,ugm-3 (GRAV EQ),84,R,ugm-3,65,R,ugm-3,193,R,ugm-3,32,R,ugm-3,13,R,ugm-3
11-01-1996,14:00,1.0,R,mgm-3,23,R,ugm-3 (GRAV EQ),103,R,ugm-3,73,R,ugm-3,229,R,ugm-3,26,R,ugm-3,11,R,ugm-3
11-01-1996,15:00,1.2,R,mgm-3,30,R,ugm-3 (GRAV EQ),98,R,ugm-3,90,R,ugm-3,239,R,ugm-3,20,R,ugm-3,13,R,ugm-3
11-01-1996,16:00,0.8,R,mgm-3,34,R,ugm-3 (GRAV EQ),56,R,ugm-3,57,R,ugm-3,143,R,ugm-3,26,R,ugm-3,11,R,ugm-3
11-01-1996,17:00,0.9,R,mgm-3,34,R,ugm-3 (GRAV EQ),44,R,ugm-3,55,R,ugm-3,122,R,ugm-3,30,R,ugm-3,8,R,ugm-3
11-01-1996,18:00,1.3,R,mgm-3,22,R,ugm-3 (GRAV EQ),48,R,ugm-3,71,R,ugm-3,143,R,ugm-3,26,R,ugm-3,11,R,ugm-3
11-01-1996,19:00,1.5,R,mgm-3,39,R,ugm-3 (GRAV EQ),94,R,ugm-3,84,R,ugm-3,227,R,ugm-3,22,R,ugm-3,11,R,ugm-3
11-01-1996,20:00,1.0,R,mgm-3,33,R,ugm-3 (GRAV EQ),75,R,ugm-3,61,R,ugm-3,176,R,ugm-3,32,R,ugm-3,11,R,ugm-3
11-01-1996,21:00,0.7,R,mgm-3,35,R,ugm-3 (GRAV EQ),46,R,ugm-3,48,R,ugm-3,118,R,ugm-3,36,R,ugm-3,11,R,ugm-3
11-01-1996,22:00,0.3,R,mgm-3,34,R,ugm-3 (GRAV EQ),8,R,ugm-3,29,R,ugm-3,40,R,ugm-3,52,R,ugm-3,5,R,ugm-3
11-01-1996,23:00,0.3,R,mgm-3,36,R,ugm-3 (GRAV EQ),9,R,ugm-3,34,R,ugm-3,48,R,ugm-3,52,R,ugm-3,5,R,ugm-3
11-01-1996,24:00,0.2,R,mgm-3,34,R,ugm-3 (GRAV EQ),5,R,ugm-3,25,R,ugm-3,32,R,ugm-3,54,R,ugm-3,5,R,ugm-3
12-01-1996,01:00,0.2,R,mgm-3,36,R,ugm-3 (GRAV EQ),3,R,ugm-3,19,R,ugm-3,23,R,ugm-3,58,R,ugm-3,8,R,ugm-3
12-01-1996,02:00,0.2,R,mgm-3,29,R,ugm-3 (GRAV EQ),4,R,ugm-3,17,R,ugm-3,23,R,ugm-3,62,R,ugm-3,5,R,ugm-3
12-01-1996,03:00,0.2,R,mgm-3,33,R,ugm-3 (GRAV EQ),5,R,ugm-3,8,R,ugm-3,15,R,ugm-3,66,R,ugm-3,5,R,ugm-3
12-01-1996,04:00,0.2,R,mgm-3,21,R,ugm-3 (GRAV EQ),3,R,ugm-3,8,R,ugm-3,11,R,ugm-3,70,R,ugm-3,3,R,ugm-3
12-01-1996,05:00,0.2,R,mgm-3,17,R,ugm-3 (GRAV EQ),1,R,ugm-3,8,R,ugm-3,10,R,ugm-3,74,R,ugm-3,5,R,ugm-3
12-01-1996,06:00,0.2,R,mgm-3,23,R,ugm-3 (GRAV EQ),1,R,ugm-3,10,R,ugm-3,11,R,ugm-3,72,R,ugm-3,5,R,ugm-3
12-01-1996,07:00,0.2,R,mgm-3,13,R,ugm-3 (GRAV EQ),3,R,ugm-3,11,R,ugm-3,15,R,ugm-3,68,R,ugm-3,5,R,ugm-3
12-01-1996,08:00,0.3,R,mgm-3,31,R,ugm-3 (GRAV EQ),8,R,ugm-3,32,R,ugm-3,44,R,ugm-3,54,R,ugm-3,5,R,ugm-3
12-01-1996,09:00,0.5,R,mgm-3,35,R,ugm-3 (GRAV EQ),11,R,ugm-3,42,R,ugm-3,59,R,ugm-3,48,R,ugm-3,8,R,ugm-3
12-01-1996,10:00,0.5,R,mgm-3,35,R,ugm-3 (GRAV EQ),21,R,ugm-3,38,R,ugm-3,71,R,ugm-3,44,R,ugm-3,8,R,ugm-3